Effective Sunday, March 17, 2024, the National Weather Service National Data Buoy Center will discontinue its Dial-A-Buoy Interactive Voice Response system. For more information, see Service Change Notice 24-06 (PDF).

Station GUXA2 - Gustavus Dock, AK Image indicating link to RSS feed of recent meteorological observations for station GUXA2


Conditions at GUXA2 as of
(4:02 pm AKST on 03/01/2024)
0102 GMT on 03/02/2024:
     

Click on the graph icon in the table below to see a time series plot of the last five days of that observation.

5-day plot - Wind Direction Wind Direction (WDIR): N ( 350 deg true )
5-day plot - Wind Speed Wind Speed (WSPD): 5 kts
5-day plot - Wind Gust Wind Gust (GST): 10 kts
5-day plot - Air Temperature Air Temperature (ATMP): 27.3 °F
5-day plot - Dew Point Dew Point (DEWP): 5.2 °F
5-day plot - Wind Chill Wind Chill (CHILL): 20.8 °F
5-day plot - Wind Speed at 10 Meters Wind Speed at 10 meters (WSPD10M): 6 kts
5-day plot - Wind Speed at 20 Meters Wind Speed at 20 meters (WSPD20M): 6 kts
5-day plot -  Wind Speed, Wind Gust and Atmospheric Pressure Combined plot of Wind Speed, Gust, and Air Pressure
Previous observations
TIME
(AKST)
5-day plot - Wind Direction
WDIR
 
5-day plot - Wind Speed
WSPD
kts
5-day plot - Wind Gust
GST
kts
5-day plot - Wave Height
WVHT
ft
5-day plot - Dominant Wave Period
DPD
sec
5-day plot - Average Wave Period
APD
sec
5-day plot - Mean Wave Direction
MWD
 
5-day plot - Atmospheric Pressure
PRES
in
5-day plot - Pressure Tendency
PTDY
in
5-day plot - Air Temperature
ATMP
°F
5-day plot - Water Temperature
WTMP
°F
5-day plot - Dew Point
DEWP
°F
5-day plot - Salinity
SAL
psu
5-day plot - Visibility
VIS
nmi
5-day plot - Tide (above MLLW)
TIDE
ft
2024-03-01 03:52 pm N 4 9------ 28.0- 4.5---
2024-03-01 03:42 pm N 3 9------ 28.0- 4.8---
2024-03-01 03:32 pm N 5 10------ 27.9- 4.5---
2024-03-01 03:22 pm N 6 12------ 27.9- 3.9---
2024-03-01 03:12 pm N 5 11------ 28.2- 4.1---
2024-03-01 02:52 pm N 6 10------ 28.4- 4.6---
2024-03-01 02:42 pm N 5 10------ 28.9- 5.4---
2024-03-01 02:32 pm N 4 9------ 28.8- 5.5---
2024-03-01 02:22 pm N 5 10------ 28.8- 5.7---
2024-03-01 02:12 pmNNW 7 15------ 28.2- 5.4---
2024-03-01 02:02 pm N 6 12------ 28.8- 5.9---
2024-03-01 01:52 pm N 5 10------ 28.9- 5.2---
2024-03-01 01:42 pmNNE 5 10------ 29.1- 5.2---
2024-03-01 01:32 pmNNE 5 12------ 29.3- 5.2---
2024-03-01 01:22 pm N 4 10------ 29.3- 5.4---
2024-03-01 01:12 pm N 6 11------ 28.8- 5.7---
2024-03-01 01:02 pm N 4 10------ 29.3- 5.0---
2024-03-01 12:52 pm N 6 11------ 28.8- 5.9---
2024-03-01 12:42 pm NE 5 11------ 28.9- 4.6---
2024-03-01 12:32 pm N 4 10------ 29.1- 5.0---
2024-03-01 12:22 pm N 4 9------ 28.8- 4.8---
2024-03-01 12:12 pm N 6 10------ 28.6- 4.6---
2024-03-01 12:02 pm N 6 10------ 28.4- 4.5---
2024-03-01 11:52 am N 6 12------ 28.4- 4.8---
2024-03-01 11:42 am N 4 9------ 28.8- 5.2---
2024-03-01 11:32 am N 4 9------ 28.6- 5.4---
2024-03-01 11:22 am N 6 10------ 27.9- 4.6---
2024-03-01 11:12 am N 5 9------ 27.9- 5.2---
2024-03-01 11:02 am N 6 10------ 27.5- 4.8---
2024-03-01 10:52 am N 5 12------ 27.5- 4.8---
2024-03-01 10:42 am N 5 11------ 27.3- 4.8---
2024-03-01 10:32 amNNE 5 9------ 27.0- 5.0---
2024-03-01 10:22 am N 6 10------ 26.8- 4.6---
2024-03-01 10:12 am N 4 8------ 27.0- 5.2---
2024-03-01 10:02 am N 4 8------ 26.4- 5.7---
2024-03-01 09:52 amNNW 4 6------ 26.1- 6.3---
2024-03-01 09:42 am N 4 6------ 25.7- 6.6---
2024-03-01 09:32 amNNW 3 6------ 25.0- 7.3---
2024-03-01 09:22 am NW 2 5------ 24.3- 7.7---
2024-03-01 09:12 am NW 3 4------ 23.5- 7.5---
2024-03-01 09:02 amNNW 3 6------ 23.0- 7.7---
2024-03-01 08:52 amNNW 2 4------ 22.3- 7.7---
2024-03-01 08:42 amNNW 3 6------ 21.6- 7.3---
2024-03-01 08:32 am N 3 5------ 20.8- 7.3---
2024-03-01 08:22 am N 3 6------ 19.8- 7.5---
2024-03-01 08:12 amNNW 4 7------ 19.2- 7.0---
2024-03-01 08:02 amNNW 4 6------ 18.9- 6.8---
2024-03-01 07:52 am N 4 7------ 18.0- 6.6---
2024-03-01 07:42 am N 3 6------ 17.6- 6.6---
2024-03-01 07:32 amNNW 3 5------ 16.7- 6.8---
2024-03-01 07:22 amNNW 3 6------ 16.0- 7.2---
2024-03-01 07:12 amNNW 3 6------ 16.3- 6.8---
2024-03-01 07:02 am N 3 4------ 15.1- 7.5---
2024-03-01 06:52 amNNW 3 5------ 15.3- 7.5---
2024-03-01 06:42 amNNW 2 3------ 15.4- 7.7---
2024-03-01 06:32 amNNW 2 4------ 15.6- 7.3---
2024-03-01 06:22 amNNW 3 6------ 16.7- 7.2---
2024-03-01 06:12 amNNW 3 5------ 15.4- 7.5---
2024-03-01 06:02 amNNW 3 5------ 15.4- 7.5---
2024-03-01 05:52 amNNW 3 4------ 15.3- 7.7---
2024-03-01 05:42 amNNW 3 4------ 15.6- 7.5---
2024-03-01 05:32 amNNW 3 6------ 15.8- 7.7---
2024-03-01 05:22 amNNW 3 5------ 16.5- 7.7---
2024-03-01 05:12 amNNW 3 5------ 16.0- 7.9---
2024-03-01 05:02 amNNW 3 5------ 16.7- 7.7---
2024-03-01 04:52 am N 3 6------ 16.0- 7.9---
2024-03-01 04:42 amNNW 3 5------ 16.3- 8.2---
2024-03-01 04:32 amNNW 2 3------ 16.9- 8.1---
2024-03-01 04:22 am NW 3 6------ 17.8- 7.7---
2024-03-01 04:12 amNNW 3 7------ 18.0- 7.5---
2024-03-01 04:02 am N 3 4------ 17.6- 7.7---
2024-03-01 03:52 am NW 4 7------ 17.2- 7.9---
2024-03-01 03:42 amNNW 3 7------ 16.7- 8.2---
2024-03-01 03:32 amNNW 3 4------ 17.1- 8.4---
2024-03-01 03:22 amNNW 3 5------ 16.7- 8.8---
2024-03-01 03:12 amNNW 3 4------ 16.9- 9.0---
2024-03-01 03:02 amNNW 2 4------ 17.6- 8.6---
2024-03-01 02:52 amNNW 3 5------ 17.6- 8.6---
2024-03-01 02:42 am N 2 5------ 18.5- 8.2---
2024-03-01 02:32 amNNW 3 5------ 18.0- 8.6---
2024-03-01 02:22 amNNW 3 5------ 18.0- 8.8---
2024-03-01 02:12 amNNW 2 5------ 17.8- 8.8---
2024-03-01 02:02 amNNW 3 5------ 17.8- 9.1---
2024-03-01 01:52 am N 3 5------ 18.5- 8.8---
2024-03-01 01:42 amNNW 3 4------ 18.3- 9.1---
2024-03-01 01:32 am N 3 5------ 19.4- 8.2---
2024-03-01 01:22 amNNW 2 4------ 19.0- 8.6---
2024-03-01 01:02 am N 3 5------ 19.0- 8.6---
2024-03-01 12:52 am N 3 6------ 19.0- 9.0---
2024-03-01 12:42 am N 3 6------ 19.2- 8.8---
2024-03-01 12:32 am N 3 5------ 19.4- 8.8---
2024-03-01 12:22 am N 3 5------ 19.0- 9.5---
2024-03-01 12:12 am N 3 6------ 19.9- 9.3---
2024-03-01 12:02 am N 2 3------ 19.9- 9.7---
2024-02-29 11:52 pm N 3 5------ 20.8- 9.1---
2024-02-29 11:42 pmNNW 4 7------ 21.0- 9.3---
2024-02-29 11:32 pm N 4 6------ 20.7- 9.7---
2024-02-29 11:22 pm N 3 7------ 21.2- 9.5---
2024-02-29 11:12 pm N 4 7------ 21.4- 9.7---
2024-02-29 11:02 pm N 4 7------ 21.2- 9.9---
2024-02-29 10:52 pm N 4 7------ 21.2- 9.7---
2024-02-29 10:42 pm N 3 7------ 21.4- 9.9---
2024-02-29 10:32 pm N 3 6------ 21.2- 10.2---
2024-02-29 10:22 pm N 4 7------ 21.0- 10.2---
2024-02-29 10:12 pmNNW 4 8------ 20.8- 10.4---
2024-02-29 10:02 pmNNW 4 6------ 21.2- 10.4---
2024-02-29 09:52 pm N 3 5------ 21.6- 10.4---
2024-02-29 09:42 pm N 2 4------ 21.7- 10.8---
2024-02-29 09:32 pm N 4 6------ 22.1- 10.6---
2024-02-29 09:22 pmNNW 4 9------ 21.9- 10.6---
2024-02-29 09:12 pmNNW 4 6------ 22.3- 10.6---
2024-02-29 09:02 pm N 4 6------ 22.3- 10.8---
2024-02-29 08:42 pmNNW 3 7------ 22.6- 10.9---
2024-02-29 08:32 pmNNW 5 8------ 22.5- 10.9---
2024-02-29 08:22 pm N 4 7------ 22.3- 11.3---
2024-02-29 08:12 pmNNW 4 7------ 22.5- 11.5---
2024-02-29 08:02 pmNNW 3 5------ 22.5- 11.8---
2024-02-29 07:52 pm N 3 5------ 22.6- 11.8---
2024-02-29 07:42 pmNNW 3 7------ 23.0- 12.0---
2024-02-29 07:32 pmNNW 4 8------ 23.2- 12.0---
2024-02-29 07:22 pmNNW 4 8------ 23.4- 12.4---
2024-02-29 07:12 pmNNW 3 5------ 23.7- 12.7---
2024-02-29 07:02 pmNNW 3 5------ 24.3- 12.6---
2024-02-29 06:52 pmNNW 4 7------ 24.6- 12.6---
2024-02-29 06:42 pmNNW 4 8------ 24.8- 12.9---
2024-02-29 06:32 pmNNW 4 7------ 25.2- 13.1---
2024-02-29 06:22 pmNNW 4 8------ 25.3- 13.3---
2024-02-29 06:12 pmNNW 5 9------ 25.7- 13.5---
2024-02-29 06:02 pmNNW 4 8------ 25.7- 13.8---
2024-02-29 05:52 pmNNW 4 8------ 26.2- 14.0---
2024-02-29 05:42 pmNNW 4 7------ 26.8- 14.0---
2024-02-29 05:32 pm N 5 9------ 27.3- 13.6---
2024-02-29 05:22 pmNNW 6 11------ 27.9- 13.8---
2024-02-29 05:12 pmNNW 5 9------ 28.2- 14.4---
2024-02-29 05:02 pmNNW 5 10------ 28.6- 14.2---
2024-02-29 04:52 pm N 4 9------ 28.9- 14.0---
2024-02-29 04:42 pmNNW 4 9------ 29.3- 13.8---
2024-02-29 04:32 pmNNW 5 9------ 29.5- 13.6---
2024-02-29 04:22 pm N 5 10------ 30.0- 13.8---
2024-02-29 04:12 pmNNW 5 7------ 30.6- 14.0---
2024-02-29 04:02 pmNNW 4 8------ 30.7- 14.4---
2024-02-29 03:52 pmNNW 4 7------ 31.1- 14.4---